| time (UTC) | temp C | wind direction | speed KPH | gust KPH | rain 1hr cm | rain 24hr cm | rain mn cm | humidity % | barometer mb |
| 20260903033523 | -17 | 138 | 0.0 | 1.6 | 0.00 | 0.00 | 0.00 | 1017.2 | |
| 20260903033023 | -17 | 138 | 0.0 | 1.6 | 0.00 | 0.00 | 0.00 | 1017.2 | |
| 20260903032524 | -17 | 138 | 0.0 | 1.6 | 0.00 | 0.00 | 0.00 | 1017.2 | |
| 20260903032022 | -17 | 138 | 0.0 | 1.6 | 0.00 | 0.00 | 0.00 | 1017.3 | |
| 20260903031531 | -17 | 138 | 0.0 | 1.6 | 0.00 | 0.00 | 0.00 | 1017.3 | |
| 20260903031022 | -17 | 142 | 0.0 | 1.6 | 0.00 | 0.00 | 0.00 | 1017.2 | |
| 20260903030522 | -17 | 138 | 0.0 | 1.6 | 0.00 | 0.00 | 0.00 | 1017.2 | |
| 20260903030022 | -17 | 138 | 0.0 | 1.6 | 0.00 | 0.00 | 0.00 | 1017.3 | |
| 20260903025521 | -17 | 138 | 0.0 | 1.6 | 0.00 | 0.00 | 0.00 | 1017.4 | |
| 20260903025022 | -17 | 138 | 0.0 | 1.6 | 0.00 | 0.00 | 0.00 | 1017.2 | |
| 20260903024521 | -17 | 138 | 0.0 | 1.6 | 0.00 | 0.00 | 0.00 | 1017.5 | |
| 20260903024020 | -17 | 138 | 0.0 | 1.6 | 0.00 | 0.00 | 0.00 | 1017.6 | |
| 20260903023520 | -17 | 140 | 0.0 | 1.6 | 0.00 | 0.00 | 0.00 | 1017.6 | |
| 20260903023024 | -17 | 136 | 0.0 | 1.6 | 0.00 | 0.00 | 0.00 | 1017.6 | |
| 20260903022521 | -17 | 123 | 0.0 | 1.6 | 0.00 | 0.00 | 0.00 | 1017.6 | |
| 20260903022020 | -17 | 116 | 0.0 | 1.6 | 0.00 | 0.00 | 0.00 | 1017.6 | |
| 20260903021521 | -17 | 127 | 0.0 | 3.2 | 0.00 | 0.00 | 0.00 | 1017.6 | |
| 20260903021019 | -17 | 126 | 0.0 | 3.2 | 0.00 | 0.00 | 0.00 | 1017.6 | |
| 20260903020520 | -17 | 124 | 0.0 | 3.2 | 0.00 | 0.00 | 0.00 | 1017.6 | |
| 20260903020019 | -17 | 101 | 0.0 | 1.6 | 0.00 | 0.00 | 0.00 | 1017.7 | |
| 20260903015519 | -17 | 124 | 0.0 | 1.6 | 0.00 | 0.00 | 0.00 | 1017.7 | |
| 20260903015019 | -17 | 125 | 0.0 | 1.6 | 0.00 | 0.00 | 0.00 | 1017.6 | |
| 20260903014518 | -17 | 125 | 0.0 | 3.2 | 0.00 | 0.00 | 0.00 | 1017.6 | |
| 20260903014018 | -17 | 121 | 0.0 | 3.2 | 0.00 | 0.00 | 0.00 | 1017.9 | |
| 20260903013519 | -17 | 126 | 1.6 | 3.2 | 0.00 | 0.00 | 0.00 | 1017.9 | |
| 20260903013019 | -17 | 136 | 0.0 | 1.6 | 0.00 | 0.00 | 0.00 | 1017.9 | |
| 20260903012517 | -17 | 127 | 0.0 | 1.6 | 0.00 | 0.00 | 0.00 | 1018.1 | |
| 20260903012020 | -17 | 131 | 0.0 | 1.6 | 0.00 | 0.00 | 0.00 | 1018.0 | |
| 20260903011518 | -17 | 143 | 0.0 | 1.6 | 0.00 | 0.00 | 0.00 | 1017.9 | |
| 20260903011018 | -17 | 109 | 0.0 | 1.6 | 0.00 | 0.00 | 0.00 | 1017.8 | |
| 20260903010517 | -17 | 112 | 0.0 | 1.6 | 0.00 | 0.00 | 0.00 | 1017.8 | |
| 20260903010036 | -17 | 113 | 0.0 | 1.6 | 0.00 | 0.00 | 0.00 | 1017.8 | |
| 20260903005517 | -17 | 83 | 0.0 | 3.2 | 0.00 | 0.00 | 0.00 | 1017.5 | |
| 20260903005017 | -17 | 137 | 1.6 | 4.8 | 0.00 | 0.00 | 0.00 | 1017.6 | |
| 20260903004517 | -17 | 125 | 1.6 | 4.8 | 0.00 | 0.00 | 0.00 | 1017.6 | |
| 20260903004016 | -17 | 126 | 1.6 | 3.2 | 0.00 | 0.00 | 0.00 | 1017.6 | |
| 20260903003517 | -17 | 136 | 0.0 | 3.2 | 0.00 | 0.00 | 0.00 | 1017.7 | |
| 20260903003016 | -17 | 136 | 1.6 | 3.2 | 0.00 | 0.00 | 0.00 | 1017.6 | |
| 20260903002519 | -17 | 132 | 1.6 | 3.2 | 0.00 | 0.00 | 0.00 | 1017.6 | |
| 20260903002016 | -17 | 128 | 1.6 | 4.8 | 0.00 | 0.00 | 0.00 | 1017.7 | |
| 20260903001528 | -17 | 110 | 0.0 | 3.2 | 0.00 | 0.00 | 0.00 | 1017.6 | |
| 20260903001017 | -17 | 132 | 1.6 | 3.2 | 0.00 | 0.00 | 0.00 | 1017.3 | |
| 20260903000518 | -17 | 113 | 0.0 | 3.2 | 0.00 | 0.00 | 0.00 | 1017.2 | |
| 20260903000016 | -17 | 84 | 0.0 | 3.2 | 0.00 | 0.00 | 0.00 | 1017.2 | |
| 20260902235516 | -17 | 111 | 0.0 | 3.2 | 0.00 | 0.00 | 0.00 | 1017.3 | |
| 20260902235018 | -17 | 119 | 0.0 | 3.2 | 0.00 | 0.00 | 0.00 | 1017.2 | |
| 20260902234526 | -17 | 130 | 0.0 | 3.2 | 0.00 | 0.00 | 0.00 | 1016.8 | |
| 20260902234018 | -17 | 113 | 0.0 | 3.2 | 0.00 | 0.00 | 0.00 | 1016.9 | |
| 20260902233515 | -17 | 119 | 0.0 | 3.2 | 0.00 | 0.00 | 0.00 | 1017.0 | |
| 20260902233014 | -17 | 126 | 0.0 | 4.8 | 0.00 | 0.00 | 0.00 | 1016.9 | |
| 20260902232514 | -17 | 156 | 1.6 | 3.2 | 0.00 | 0.00 | 0.00 | 1017.1 | |
| 20260902232015 | -17 | 113 | 1.6 | 3.2 | 0.00 | 0.00 | 0.00 | 1017.3 | |
| 20260902231529 | -17 | 126 | 0.0 | 3.2 | 0.00 | 0.00 | 0.00 | 1017.5 | |
| 20260902231014 | -17 | 90 | 0.0 | 4.8 | 0.00 | 0.00 | 0.00 | 1017.8 | |
| 20260902230514 | -17 | 103 | 0.0 | 4.8 | 0.00 | 0.00 | 0.00 | 1017.4 | |
| 20260902230014 | -17 | 124 | 0.0 | 3.2 | 0.00 | 0.00 | 0.00 | 1017.3 | |
| 20260902225514 | -17 | 360 | 1.6 | 3.2 | 0.00 | 0.00 | 0.00 | 1017.2 | |
| 20260902225017 | -17 | 128 | 1.6 | 4.8 | 0.00 | 0.00 | 0.00 | 1017.1 | |
| 20260902224513 | -17 | 133 | 1.6 | 4.8 | 0.00 | 0.00 | 0.00 | 1017.7 | |
| 20260902224013 | -17 | 128 | 1.6 | 4.8 | 0.00 | 0.00 | 0.00 | 1018.1 | |
| 20260902223512 | -17 | 151 | 1.6 | 4.8 | 0.00 | 0.00 | 0.00 | 1017.9 | |
| 20260902223013 | -17 | 93 | 1.6 | 4.8 | 0.00 | 0.00 | 0.00 | 1017.9 | |
| 20260902222511 | -17 | 142 | 0.0 | 4.8 | 0.00 | 0.00 | 0.00 | 1017.8 | |
| 20260902222012 | -17 | 121 | 1.6 | 4.8 | 0.00 | 0.00 | 0.00 | 1017.6 | |
| 20260902221516 | -17 | 119 | 0.0 | 4.8 | 0.00 | 0.00 | 0.00 | 1017.9 | |
| 20260902221012 | -17 | 183 | 0.0 | 4.8 | 0.00 | 0.00 | 0.00 | 1018.2 | |
| 20260902220614 | -17 | 167 | 0.0 | 8.0 | 0.00 | 0.00 | 0.00 | 1018.1 | |
| 20260902220025 | -17 | 204 | 1.6 | 8.0 | 0.00 | 0.00 | 0.00 | 1017.9 | |
| 20260902215510 | -17 | 115 | 1.6 | 6.4 | 0.00 | 0.00 | 0.00 | 1017.9 | |
| 20260902215014 | -17 | 131 | 1.6 | 6.4 | 0.00 | 0.00 | 0.00 | 1017.9 | |
| 20260902214510 | -17 | 142 | 1.6 | 8.0 | 0.00 | 0.00 | 0.00 | 1017.9 | |
| 20260902214008 | -17 | 131 | 3.2 | 8.0 | 0.00 | 0.00 | 0.00 | 1017.7 | |
| 20260902213511 | -17 | 180 | 3.2 | 8.0 | 0.00 | 0.00 | 0.00 | 1017.7 | |
| 20260902213009 | -17 | 158 | 1.6 | 9.7 | 0.00 | 0.00 | 0.00 | 1017.9 | |
| 20260902212509 | -17 | 117 | 0.0 | 14.5 | 0.00 | 0.00 | 0.00 | 1018.0 | |
| 20260902212013 | -17 | 360 | 4.8 | 16.1 | 0.00 | 0.00 | 0.00 | 1017.8 | |
| 20260902211512 | -17 | 221 | 3.2 | 16.1 | 0.00 | 0.00 | 0.00 | 1017.9 | |
| 20260902211008 | -17 | 324 | 4.8 | 16.1 | 0.00 | 0.00 | 0.00 | 1017.7 | |
| 20260902210508 | -17 | 5 | 6.4 | 17.7 | 0.00 | 0.00 | 0.00 | 1017.9 | |
| 20260902210009 | -17 | 171 | 1.6 | 12.9 | 0.00 | 0.00 | 0.00 | 1017.9 | |
| 20260902205508 | -17 | 340 | 4.8 | 11.3 | 0.00 | 0.00 | 0.00 | 1018.1 | |
| 20260902205011 | -17 | 302 | 3.2 | 9.7 | 0.00 | 0.00 | 0.00 | 1017.8 | |
| 20260902204509 | -17 | 185 | 1.6 | 4.8 | 0.00 | 0.00 | 0.00 | 1017.5 | |
| 20260902204012 | -17 | 164 | 0.0 | 4.8 | 0.00 | 0.00 | 0.00 | 1017.2 | |
| 20260902203506 | -17 | 281 | 1.6 | 6.4 | 0.00 | 0.00 | 0.00 | 1017.3 | |
| 20260902203006 | -17 | 127 | 3.2 | 6.4 | 0.00 | 0.00 | 0.00 | 1017.3 | |
| 20260902202508 | -17 | 355 | 1.6 | 4.8 | 0.00 | 0.00 | 0.00 | 1017.4 | |
| 20260902202003 | -17 | 133 | 1.6 | 4.8 | 0.00 | 0.00 | 0.00 | 1017.4 | |
| 20260902201502 | -17 | 112 | 1.6 | 4.8 | 0.00 | 0.00 | 0.00 | 1017.4 | |
| 20260902201101 | -17 | 98 | 0.0 | 4.8 | 0.00 | 0.00 | 0.00 | 1017.5 | |
| 20260902200601 | -17 | 355 | 0.0 | 4.8 | 0.00 | 0.00 | 0.00 | 1017.5 | |
| 20260902200058 | -17 | 76 | 0.0 | 4.8 | 0.00 | 0.00 | 0.00 | 1017.5 | |
| 20260902195600 | -17 | 40 | 0.0 | 9.7 | 0.00 | 0.00 | 0.00 | 1017.5 | |
| 20260902195055 | -17 | 109 | 0.0 | 9.7 | 0.00 | 0.00 | 0.00 | 1017.4 | |
| 20260902194554 | -17 | 15 | 0.0 | 3.2 | 0.00 | 0.00 | 0.00 | 1017.4 | |
| 20260902194052 | -17 | 111 | 0.0 | 3.2 | 0.00 | 0.00 | 0.00 | 1017.2 | |
| 20260902193550 | -17 | 125 | 1.6 | 4.8 | 0.00 | 0.00 | 0.00 | 1017.2 | |
| 20260902193049 | -17 | 112 | 0.0 | 4.8 | 0.00 | 0.00 | 0.00 | 1017.3 | |
| 20260902192547 | -17 | 13 | 0.0 | 4.8 | 0.00 | 0.00 | 0.00 | 1017.3 | |
| 20260902192051 | -17 | 327 | 1.6 | 4.8 | 0.00 | 0.00 | 0.00 | 1017.3 | |
| 20260902191549 | -17 | 111 | 1.6 | 4.8 | 0.00 | 0.00 | 0.00 | 1017.3 | |
| 20260902191043 | -17 | 159 | 1.6 | 4.8 | 0.00 | 0.00 | 0.00 | 1017.4 | |
| 20260902190541 | -17 | 115 | 1.6 | 4.8 | 0.00 | 0.00 | 0.00 | 1017.5 | |
| 20260902190040 | -17 | 103 | 1.6 | 4.8 | 0.00 | 0.00 | 0.00 | 1017.7 | |
| 20260902185540 | -17 | 104 | 1.6 | 3.2 | 0.00 | 0.00 | 0.00 | 1017.7 | |
| 20260902185043 | -17 | 155 | 0.0 | 4.8 | 0.00 | 0.00 | 0.00 | 1017.8 | |
| 20260902184539 | -17 | 142 | 0.0 | 6.4 | 0.00 | 0.00 | 0.00 | 1017.7 | |
| 20260902184039 | -17 | 138 | 1.6 | 6.4 | 0.00 | 0.00 | 0.00 | 1017.9 | |
| 20260902183538 | -17 | 100 | 0.0 | 3.2 | 0.00 | 0.00 | 0.00 | 1017.8 | |
| 20260902183037 | -17 | 323 | 1.6 | 4.8 | 0.00 | 0.00 | 0.00 | 1017.9 | |
| 20260902182534 | -17 | 119 | 1.6 | 4.8 | 0.00 | 0.00 | 0.00 | 1017.9 | |
| 20260902182034 | -17 | 108 | 0.0 | 6.4 | 0.00 | 0.00 | 0.00 | 1018.0 | |
| 20260902181532 | -17 | 117 | 1.6 | 6.4 | 0.00 | 0.00 | 0.00 | 1018.1 | |
| 20260902181034 | -17 | 36 | 1.6 | 6.4 | 0.00 | 0.00 | 0.00 | 1018.0 | |
| 20260902180528 | -17 | 134 | 0.0 | 4.8 | 0.00 | 0.00 | 0.00 | 1018.0 | |
| 20260902180028 | -17 | 125 | 1.6 | 4.8 | 0.00 | 0.00 | 0.00 | 1018.1 | |
| 20260902175526 | -17 | 343 | 1.6 | 4.8 | 0.00 | 0.00 | 0.00 | 1018.0 | |
| 20260902175025 | -17 | 79 | 0.0 | 4.8 | 0.00 | 0.00 | 0.00 | 1018.0 | |
| 20260902174526 | -17 | 153 | 0.0 | 4.8 | 0.00 | 0.00 | 0.00 | 1017.9 | |
| 20260902174023 | -17 | 57 | 0.0 | 6.4 | 0.00 | 0.00 | 0.00 | 1017.9 | |
| 20260902173520 | -17 | 88 | 1.6 | 6.4 | 0.00 | 0.00 | 0.00 | 1017.9 | |
| 20260902173030 | -17 | 5 | 0.0 | 4.8 | 0.00 | 0.00 | 0.00 | 1017.9 | |
| 20260902172519 | -17 | 5 | 1.6 | 4.8 | 0.00 | 0.00 | 0.00 | 1017.9 | |
| 20260902172016 | -17 | 72 | 1.6 | 4.8 | 0.00 | 0.00 | 0.00 | 1017.8 | |
| 20260902171514 | -17 | 126 | 1.6 | 4.8 | 0.00 | 0.00 | 0.00 | 1017.9 | |
| 20260902171012 | -17 | 335 | 0.0 | 9.7 | 0.00 | 0.00 | 0.00 | 1017.8 | |
| 20260902170513 | -17 | 22 | 1.6 | 9.7 | 0.00 | 0.00 | 0.00 | 1017.9 | |
| 20260902170011 | -17 | 19 | 1.6 | 6.4 | 0.00 | 0.00 | 0.00 | 1017.9 | |
| 20260902165509 | -17 | 19 | 1.6 | 8.0 | 0.00 | 0.00 | 0.00 | 1017.8 | |
| 20260902165007 | -17 | 98 | 0.0 | 4.8 | 0.00 | 0.00 | 0.00 | 1017.8 | |
| 20260902164506 | -17 | 173 | 1.6 | 4.8 | 0.00 | 0.00 | 0.00 | 1017.9 | |
| 20260902164105 | -17 | 139 | 0.0 | 8.0 | 0.00 | 0.00 | 0.00 | 1017.9 | |
| 20260902163502 | -17 | 166 | 1.6 | 8.0 | 0.00 | 0.00 | 0.00 | 1018.1 | |
| 20260902163001 | -17 | 180 | 1.6 | 4.8 | 0.00 | 0.00 | 0.00 | 1018.1 | |
| 20260902162602 | -17 | 301 | 1.6 | 4.8 | 0.00 | 0.00 | 0.00 | 1018.2 | |
| 20260902162057 | -17 | 113 | 1.6 | 4.8 | 0.00 | 0.00 | 0.00 | 1018.3 | |
| 20260902161603 | -17 | 79 | 0.0 | 6.4 | 0.00 | 0.00 | 0.00 | 1018.4 | |
| 20260902161055 | -17 | 346 | 3.2 | 6.4 | 0.00 | 0.00 | 0.00 | 1018.4 | |
| 20260902160554 | -17 | 89 | 0.0 | 4.8 | 0.00 | 0.00 | 0.00 | 1018.4 | |
| 20260902160055 | -17 | 107 | 1.6 | 4.8 | 0.00 | 0.00 | 0.00 | 1018.5 | |
| 20260902155551 | -17 | 138 | 0.0 | 4.8 | 0.00 | 0.00 | 0.00 | 1018.5 | |
| 20260902155049 | -17 | 102 | 0.0 | 6.4 | 0.00 | 0.00 | 0.00 | 1018.4 | |
| 20260902154548 | -17 | 96 | 1.6 | 6.4 | 0.00 | 0.00 | 0.00 | 1018.6 | |
| 20260902154046 | -17 | 5 | 0.0 | 3.2 | 0.00 | 0.00 | 0.00 | 1018.5 | |
| 20260902153545 | -17 | 107 | 0.0 | 3.2 | 0.00 | 0.00 | 0.00 | 1018.4 | |
| 20260902153043 | -17 | 148 | 0.0 | 3.2 | 0.00 | 0.00 | 0.00 | 1018.4 | |
| 20260902152541 | -17 | 107 | 0.0 | 9.7 | 0.00 | 0.00 | 0.00 | 1018.5 | |
| 20260902152040 | -17 | 169 | 1.6 | 9.7 | 0.00 | 0.00 | 0.00 | 1018.7 | |
| 20260902151539 | -17 | 112 | 1.6 | 4.8 | 0.00 | 0.00 | 0.00 | 1018.6 | |
| 20260902151037 | -17 | 116 | 0.0 | 3.2 | 0.00 | 0.00 | 0.00 | 1018.7 | |
| 20260902150536 | -17 | 101 | 0.0 | 3.2 | 0.00 | 0.00 | 0.00 | 1018.7 | |
| 20260902150037 | -17 | 101 | 0.0 | 3.2 | 0.00 | 0.00 | 0.00 | 1018.7 | |
| 20260902145532 | -17 | 101 | 0.0 | 4.8 | 0.00 | 0.00 | 0.00 | 1018.7 | |
| 20260902145033 | -17 | 88 | 1.6 | 4.8 | 0.00 | 0.00 | 0.00 | 1018.7 | |
| 20260902144532 | -17 | 167 | 0.0 | 6.4 | 0.00 | 0.00 | 0.00 | 1018.7 | |
| 20260902144028 | -17 | 9 | 1.6 | 6.4 | 0.00 | 0.00 | 0.00 | 1018.6 | |
| 20260902143527 | -17 | 132 | 0.0 | 4.8 | 0.00 | 0.00 | 0.00 | 1018.6 | |
| 20260902143026 | -17 | 161 | 0.0 | 3.2 | 0.00 | 0.00 | 0.00 | 1018.6 | |
| 20260902142524 | -17 | 189 | 0.0 | 6.4 | 0.00 | 0.00 | 0.00 | 1018.6 | |
| 20260902142022 | -17 | 117 | 1.6 | 6.4 | 0.00 | 0.00 | 0.00 | 1018.6 | |
| 20260902141526 | -17 | 146 | 1.6 | 4.8 | 0.00 | 0.00 | 0.00 | 1018.6 | |
| 20260902141022 | -17 | 104 | 0.0 | 4.8 | 0.00 | 0.00 | 0.00 | 1018.6 | |
| 20260902140518 | -17 | 115 | 0.0 | 3.2 | 0.00 | 0.00 | 0.00 | 1018.6 | |
| 20260902140027 | -17 | 118 | 0.0 | 4.8 | 0.00 | 0.00 | 0.00 | 1018.5 | |
| 20260902135518 | -17 | 119 | 1.6 | 4.8 | 0.00 | 0.00 | 0.00 | 1018.5 | |
| 20260902135014 | -17 | 39 | 0.0 | 4.8 | 0.00 | 0.00 | 0.00 | 1018.5 | |
| 20260902134512 | -17 | 111 | 0.0 | 1.6 | 0.00 | 0.00 | 0.00 | 1018.5 | |
| 20260902134010 | -17 | 105 | 0.0 | 1.6 | 0.00 | 0.00 | 0.00 | 1018.4 | |
| 20260902133508 | -17 | 105 | 0.0 | 1.6 | 0.00 | 0.00 | 0.00 | 1018.4 | |
| 20260902133007 | -17 | 101 | 0.0 | 3.2 | 0.00 | 0.00 | 0.00 | 1018.3 | |
| 20260902132507 | -17 | 38 | 0.0 | 3.2 | 0.00 | 0.00 | 0.00 | 1018.2 | |
| 20260902132003 | -17 | 17 | 0.0 | 4.8 | 0.00 | 0.00 | 0.00 | 1018.4 | |
| 20260902131502 | -17 | 26 | 0.0 | 4.8 | 0.00 | 0.00 | 0.00 | 1018.3 | |
| 20260902131001 | -17 | 64 | 0.0 | 3.2 | 0.00 | 0.00 | 0.00 | 1018.2 | |
| 20260902130600 | -17 | 69 | 0.0 | 3.2 | 0.00 | 0.00 | 0.00 | 1018.2 | |
| 20260902130059 | -17 | 28 | 0.0 | 3.2 | 0.00 | 0.00 | 0.00 | 1018.3 | |
| 20260902125557 | -17 | 112 | 0.0 | 3.2 | 0.00 | 0.00 | 0.00 | 1018.3 | |
| 20260902125056 | -17 | 112 | 0.0 | 0.0 | 0.00 | 0.00 | 0.00 | 1018.3 | |
| 20260902124557 | -17 | 112 | 0.0 | 3.2 | 0.00 | 0.00 | 0.00 | 1018.3 | |
| 20260902124055 | -17 | 112 | 0.0 | 1.6 | 0.00 | 0.00 | 0.00 | 1018.3 | |
| 20260902123552 | -17 | 112 | 0.0 | 1.6 | 0.00 | 0.00 | 0.00 | 1018.3 | |
| 20260902123054 | -17 | 118 | 0.0 | 1.6 | 0.00 | 0.00 | 0.00 | 1018.3 | |
| 20260902122552 | -17 | 123 | 0.0 | 1.6 | 0.00 | 0.00 | 0.00 | 1018.3 | |
| 20260902122046 | -17 | 126 | 0.0 | 1.6 | 0.00 | 0.00 | 0.00 | 1018.3 | |
| 20260902121549 | -17 | 126 | 0.0 | 1.6 | 0.00 | 0.00 | 0.00 | 1018.3 | |
| 20260902121043 | -17 | 126 | 0.0 | 1.6 | 0.00 | 0.00 | 0.00 | 1018.2 | |
| 20260902120545 | -17 | 117 | 0.0 | 1.6 | 0.00 | 0.00 | 0.00 | 1018.2 | |
| 20260902120041 | -17 | 110 | 0.0 | 0.0 | 0.00 | 0.00 | 0.00 | 1018.3 | |
| 20260902115543 | -17 | 110 | 0.0 | 0.0 | 0.00 | 0.00 | 0.00 | 1018.2 | |
| 20260902115038 | -17 | 110 | 0.0 | 0.0 | 0.00 | 0.00 | 0.00 | 1018.2 | |
| 20260902114603 | -17 | 110 | 0.0 | 1.6 | 0.00 | 0.00 | 0.00 | 1018.1 | |
| 20260902114036 | -17 | 110 | 0.0 | 1.6 | 0.00 | 0.00 | 0.00 | 1018.1 | |
| 20260902113533 | -17 | 113 | 0.0 | 1.6 | 0.00 | 0.00 | 0.00 | 1018.1 | |
| 20260902113041 | -17 | 122 | 0.0 | 1.6 | 0.00 | 0.00 | 0.00 | 1018.2 | |
| 20260902112530 | -17 | 127 | 0.0 | 1.6 | 0.00 | 0.00 | 0.00 | 1018.1 | |
| 20260902112029 | -17 | 136 | 0.0 | 1.6 | 0.00 | 0.00 | 0.00 | 1018.1 | |
| 20260902111527 | -17 | 122 | 0.0 | 1.6 | 0.00 | 0.00 | 0.00 | 1018.1 | |
| 20260902111026 | -17 | 128 | 0.0 | 0.0 | 0.00 | 0.00 | 0.00 | 1018.0 | |
| 20260902110525 | -17 | 128 | 0.0 | 0.0 | 0.00 | 0.00 | 0.00 | 1018.1 | |
| 20260902110036 | -17 | 128 | 0.0 | 0.0 | 0.00 | 0.00 | 0.00 | 1018.2 | |
| 20260902105525 | -17 | 128 | 0.0 | 0.0 | 0.00 | 0.00 | 0.00 | 1018.2 | |
| 20260902105020 | -17 | 128 | 0.0 | 1.6 | 0.00 | 0.00 | 0.00 | 1018.0 | |
| 20260902104532 | -17 | 128 | 0.0 | 1.6 | 0.00 | 0.00 | 0.00 | 1017.9 | |
| 20260902104018 | -17 | 128 | 0.0 | 1.6 | 0.00 | 0.00 | 0.00 | 1017.9 | |
| 20260902103516 | -17 | 134 | 0.0 | 1.6 | 0.00 | 0.00 | 0.00 | 1017.8 | |
| 20260902103021 | -17 | 140 | 0.0 | 1.6 | 0.00 | 0.00 | 0.00 | 1017.8 | |
| 20260902102516 | -17 | 140 | 0.0 | 3.2 | 0.00 | 0.00 | 0.00 | 1017.8 | |
| 20260902102011 | -17 | 118 | 0.0 | 3.2 | 0.00 | 0.00 | 0.00 | 1017.7 | |
| 20260902101509 | -17 | 114 | 0.0 | 1.6 | 0.00 | 0.00 | 0.00 | 1017.6 | |
| 20260902101008 | -17 | 103 | 0.0 | 1.6 | 0.00 | 0.00 | 0.00 | 1017.6 | |
| 20260902100507 | -17 | 101 | 0.0 | 0.0 | 0.00 | 0.00 | 0.00 | 1017.5 | |
| 20260902100008 | -17 | 101 | 0.0 | 0.0 | 0.00 | 0.00 | 0.00 | 1017.4 | |
| 20260902095505 | -17 | 101 | 0.0 | 0.0 | 0.00 | 0.00 | 0.00 | 1017.6 | |
| 20260902095003 | -17 | 101 | 0.0 | 1.6 | 0.00 | 0.00 | 0.00 | 1017.4 | |
| 20260902094501 | -17 | 101 | 0.0 | 1.6 | 0.00 | 0.00 | 0.00 | 1017.2 | |
| 20260902094100 | -17 | 101 | 0.0 | 1.6 | 0.00 | 0.00 | 0.00 | 1017.3 | |
| 20260902093557 | -17 | 102 | 0.0 | 1.6 | 0.00 | 0.00 | 0.00 | 1017.4 | |
| 20260902093108 | -17 | 102 | 0.0 | 1.6 | 0.00 | 0.00 | 0.00 | 1017.4 | |
| 20260902092555 | -17 | 104 | 0.0 | 1.6 | 0.00 | 0.00 | 0.00 | 1017.4 | |
| 20260902092057 | -17 | 101 | 0.0 | 1.6 | 0.00 | 0.00 | 0.00 | 1017.4 | |
| 20260902091556 | -17 | 106 | 0.0 | 1.6 | 0.00 | 0.00 | 0.00 | 1017.3 | |
| 20260902091053 | -17 | 103 | 0.0 | 0.0 | 0.00 | 0.00 | 0.00 | 1017.3 | |
| 20260902090551 | -17 | 103 | 0.0 | 0.0 | 0.00 | 0.00 | 0.00 | 1017.3 | |
| 20260902090056 | -17 | 103 | 0.0 | 0.0 | 0.00 | 0.00 | 0.00 | 1017.2 | |
| 20260902085547 | -17 | 103 | 0.0 | 0.0 | 0.00 | 0.00 | 0.00 | 1017.3 | |
| 20260902085047 | -17 | 103 | 0.0 | 1.6 | 0.00 | 0.00 | 0.00 | 1017.3 | |
| 20260902084543 | -17 | 103 | 0.0 | 1.6 | 0.00 | 0.00 | 0.00 | 1017.3 | |
| 20260902084043 | -17 | 104 | 0.0 | 1.6 | 0.00 | 0.00 | 0.00 | 1017.3 | |
| 20260902083539 | -17 | 104 | 0.0 | 0.0 | 0.00 | 0.00 | 0.00 | 1017.2 | |
| 20260902083044 | -17 | 104 | 0.0 | 1.6 | 0.00 | 0.00 | 0.00 | 1017.2 | |
| 20260902082537 | -17 | 104 | 0.0 | 1.6 | 0.00 | 0.00 | 0.00 | 1017.2 | |
| 20260902082036 | -17 | 107 | 0.0 | 1.6 | 0.00 | 0.00 | 0.00 | 1017.2 | |
| 20260902081541 | -17 | 105 | 0.0 | 1.6 | 0.00 | 0.00 | 0.00 | 1017.2 | |
| 20260902081034 | -17 | 102 | 0.0 | 0.0 | 0.00 | 0.00 | 0.00 | 1017.1 | |
| 20260902080535 | -17 | 102 | 0.0 | 0.0 | 0.00 | 0.00 | 0.00 | 1017.1 | |
| 20260902080036 | -17 | 102 | 0.0 | 0.0 | 0.00 | 0.00 | 0.00 | 1017.1 | |
| 20260902075533 | -17 | 102 | 0.0 | 0.0 | 0.00 | 0.00 | 0.00 | 1016.9 | |
| 20260902075035 | -17 | 102 | 0.0 | 1.6 | 0.00 | 0.00 | 0.00 | 1017.0 | |
| 20260902074543 | -17 | 102 | 0.0 | 1.6 | 0.00 | 0.00 | 0.00 | 1017.0 | |
| 20260902074032 | -17 | 102 | 0.0 | 1.6 | 0.00 | 0.00 | 0.00 | 1017.0 | |
| 20260902073530 | -17 | 103 | 0.0 | 1.6 | 0.00 | 0.00 | 0.00 | 1017.0 | |
| 20260902073028 | -17 | 104 | 0.0 | 1.6 | 0.00 | 0.00 | 0.00 | 1017.0 | |
| 20260902072526 | -17 | 107 | 0.0 | 1.6 | 0.00 | 0.00 | 0.00 | 1017.1 | |
| 20260902072026 | -17 | 107 | 0.0 | 1.6 | 0.00 | 0.00 | 0.00 | 1017.2 | |
| 20260902071525 | -17 | 107 | 0.0 | 1.6 | 0.00 | 0.00 | 0.00 | 1017.2 | |
| 20260902071023 | -17 | 107 | 0.0 | 0.0 | 0.00 | 0.00 | 0.00 | 1017.1 | |
| 20260902070521 | -17 | 107 | 0.0 | 1.6 | 0.00 | 0.00 | 0.00 | 1017.1 | |
| 20260902070021 | -17 | 107 | 0.0 | 1.6 | 0.00 | 0.00 | 0.00 | 1017.2 | |
| 20260902065519 | -17 | 105 | 0.0 | 0.0 | 0.00 | 0.00 | 0.00 | 1017.1 | |
| 20260902065018 | -17 | 105 | 0.0 | 0.0 | 0.00 | 0.00 | 0.00 | 1017.1 | |
| 20260902064522 | -17 | 105 | 0.0 | 1.6 | 0.00 | 0.00 | 0.00 | 1017.0 | |
| 20260902064015 | -17 | 105 | 0.0 | 1.6 | 0.00 | 0.00 | 0.00 | 1016.9 | |
| 20260902063512 | -17 | 105 | 0.0 | 1.6 | 0.00 | 0.00 | 0.00 | 1016.9 | |
| 20260902063018 | -17 | 105 | 0.0 | 1.6 | 0.00 | 0.00 | 0.00 | 1016.9 | |
| 20260902062510 | -17 | 105 | 0.0 | 1.6 | 0.00 | 0.00 | 0.00 | 1017.0 | |
| 20260902062008 | -17 | 105 | 0.0 | 1.6 | 0.00 | 0.00 | 0.00 | 1017.0 | |
| 20260902061516 | -17 | 109 | 0.0 | 1.6 | 0.00 | 0.00 | 0.00 | 1016.9 | |
| 20260902061005 | -17 | 99 | 0.0 | 1.6 | 0.00 | 0.00 | 0.00 | 1016.8 | |
| 20260902060503 | -17 | 99 | 0.0 | 1.6 | 0.00 | 0.00 | 0.00 | 1016.9 | |
| 20260902060002 | -17 | 102 | 0.0 | 0.0 | 0.00 | 0.00 | 0.00 | 1016.9 | |
| 20260902055503 | -17 | 102 | 0.0 | 0.0 | 0.00 | 0.00 | 0.00 | 1016.9 | |
| 20260902055100 | -17 | 102 | 0.0 | 0.0 | 0.00 | 0.00 | 0.00 | 1017.0 | |
| 20260902054600 | -17 | 102 | 0.0 | 1.6 | 0.00 | 0.00 | 0.00 | 1016.9 | |
| 20260902054056 | -17 | 102 | 0.0 | 1.6 | 0.00 | 0.00 | 0.00 | 1017.0 | |
| 20260902053555 | -17 | 116 | 0.0 | 1.6 | 0.00 | 0.00 | 0.00 | 1017.0 | |
| 20260902053102 | -17 | 103 | 0.0 | 1.6 | 0.00 | 0.00 | 0.00 | 1017.0 | |
| 20260902052551 | -17 | 100 | 0.0 | 1.6 | 0.00 | 0.00 | 0.00 | 1017.0 | |
| 20260902052050 | -17 | 100 | 0.0 | 3.2 | 0.00 | 0.00 | 0.00 | 1017.1 | |
| 20260902051554 | -17 | 101 | 0.0 | 3.2 | 0.00 | 0.00 | 0.00 | 1017.1 | |
| 20260902051048 | -17 | 114 | 0.0 | 0.0 | 0.00 | 0.00 | 0.00 | 1017.2 | |
| 20260902050547 | -17 | 114 | 0.0 | 1.6 | 0.00 | 0.00 | 0.00 | 1017.1 | |
| 20260902050047 | -17 | 114 | 0.0 | 1.6 | 0.00 | 0.00 | 0.00 | 1017.0 | |
| 20260902045543 | -17 | 117 | 0.0 | 1.6 | 0.00 | 0.00 | 0.00 | 1017.0 | |
| 20260902045042 | -17 | 119 | 0.0 | 1.6 | 0.00 | 0.00 | 0.00 | 1017.0 | |
| 20260902044540 | -17 | 123 | 0.0 | 1.6 | 0.00 | 0.00 | 0.00 | 1016.9 | |
| 20260902044039 | -17 | 128 | 0.0 | 1.6 | 0.00 | 0.00 | 0.00 | 1016.9 | |
| 20260902043538 | -17 | 128 | 0.0 | 1.6 | 0.00 | 0.00 | 0.00 | 1016.9 | |
| 20260902043036 | -17 | 126 | 0.0 | 3.2 | 0.00 | 0.00 | 0.00 | 1016.9 | |
| 20260902042536 | -17 | 132 | 0.0 | 3.2 | 0.00 | 0.00 | 0.00 | 1016.8 | |
| 20260902042034 | -17 | 127 | 0.0 | 3.2 | 0.00 | 0.00 | 0.00 | 1016.8 | |
| 20260902041536 | -17 | 140 | 0.0 | 1.6 | 0.00 | 0.00 | 0.00 | 1016.8 | |
| 20260902041031 | -17 | 157 | 0.0 | 1.6 | 0.00 | 0.00 | 0.00 | 1016.7 | |
| 20260902040529 | -17 | 136 | 0.0 | 1.6 | 0.00 | 0.00 | 0.00 | 1016.6 | |
| 20260902040028 | -17 | 118 | 0.0 | 1.6 | 0.00 | 0.00 | 0.00 | 1016.7 | |
| 20260902035526 | -17 | 118 | 0.0 | 1.6 | 0.00 | 0.00 | 0.00 | 1016.6 | |
| 20260902035027 | -17 | 121 | 0.0 | 1.6 | 0.00 | 0.00 | 0.00 | 1016.6 | |
| 20260902034527 | -17 | 129 | 0.0 | 1.6 | 0.00 | 0.00 | 0.00 | 1016.5 | |
| 20260902034025 | -17 | 121 | 0.0 | 1.6 | 0.00 | 0.00 | 0.00 | 1016.4 |